Date,TemperatureHighF,TemperatureAvgF,TemperatureLowF,DewpointHighF,DewpointAvgF,DewpointLowF,HumidityHigh,HumidityAvg,HumidityLow,PressureMaxIn,PressureMinIn,WindSpeedMaxMPH,WindSpeedAvgMPH,GustSpeedMaxMPH,PrecipitationSumIn
2013-10-1,70.5,64.8,53.9,52.9,49.2,44.7,71,57,50,29.95,29.88,14,2,14,0.00
2013-10-2,66.9,58.8,51.0,49.8,44.0,-30.7,82,59,45,29.95,29.88,18,1,18,0.00
2013-10-3,64.9,58.9,48.9,38.0,35.5,32.1,54,42,35,29.93,29.85,14,2,14,0.00
2013-10-4,71.0,64.2,55.2,23.5,20.5,17.6,25,19,15,30.08,29.98,29,10,29,0.00
2013-10-5,75.5,68.7,58.8,26.1,22.3,17.5,25,17,15,30.17,30.11,23,7,23,0.00
2013-10-6,76.8,69.0,57.3,28.2,24.1,18.9,24,19,15,30.12,30.02,20,4,20,0.00
2013-10-7,79.3,68.5,53.7,31.4,26.3,19.6,29,21,15,29.99,29.88,12,2,12,0.00
2013-10-8,70.8,63.3,50.1,33.9,30.7,26.8,41,30,23,29.87,29.72,10,2,10,0.00
2013-10-9,57.7,48.1,40.2,38.0,35.2,-33.3,79,62,45,29.71,29.58,12,2,12,0.26
2013-10-10,58.8,53.9,39.9,41.4,38.3,33.3,82,56,47,29.91,29.74,10,2,10,0.00
2013-10-12,67.1,60.0,49.8,41.7,38.5,34.5,66,46,33,29.95,29.85,12,2,114,0.00
2013-10-13,59.9,54.8,45.6,40.4,37.1,34.1,64,52,43,29.98,29.89,13,2,13,0.00
2013-10-14,67.6,60.1,49.2,39.7,36.0,32.2,52,41,35,30.04,29.96,16,3,16,0.00
2013-10-15,70.5,63.2,51.0,38.9,34.5,25.1,53,34,29,29.99,29.92,12,3,12,0.00
2013-10-16,67.8,62.4,56.1,29.1,26.5,24.2,29,25,23,30.08,30.07,22,5,22,0.00
2013-10-17,66.0,57.5,51.2,34.5,31.3,27.1,43,37,31,30.04,29.95,7,1,7,0.00
2013-10-18,74.8,66.0,52.3,36.5,32.9,25.5,39,30,23,30.02,29.98,8,3,8,0.00
2013-10-19,77.5,67.8,53.2,37.4,31.8,24.3,37,27,19,30.06,29.99,12,2,12,0.00
2013-10-20,72.3,64.3,51.0,38.4,34.8,30.4,47,34,26,29.98,29.91,12,3,12,0.00
2013-10-21,79.8,69.2,50.7,35.0,28.0,21.7,33,22,16,29.97,29.91,18,3,18,0.00
2013-10-22,81.3,70.0,55.9,34.2,28.8,23.3,34,22,16,30.00,29.91,21,4,21,0.00
2013-10-23,77.9,65.9,52.5,40.6,33.6,24.9,42,31,22,29.93,29.87,8,2,8,0.00
2013-10-24,72.1,63.4,49.3,42.2,36.8,29.9,48,38,31,30.03,29.93,10,2,10,0.00
2013-10-25,71.7,62.3,49.8,43.8,38.3,28.1,54,41,33,30.10,30.05,8,2,8,0.00
2013-10-26,77.0,66.6,52.3,43.4,37.0,28.6,50,35,24,30.09,30.00,12,1,12,0.00
2013-10-27,73.5,64.0,50.0,43.3,35.6,26.0,48,35,24,29.94,29.70,10,2,10,0.00
2013-10-28,54.3,46.6,41.7,39.2,37.0,34.0,81,70,50,29.77,29.69,14,1,14,0.27
2013-10-29,52.7,47.0,42.0,40.6,37.5,33.5,84,70,59,29.89,29.85,8,1,8,0.00
2013-10-30,53.7,47.6,35.2,41.1,37.7,30.9,85,69,60,30.02,29.92,10,1,10,0.00
2013-10-31,61.5,52.6,36.3,43.6,39.1,31.9,84,61,47,30.08,30.01,5,1,5,0.00